Hourly Data Report for October 20, 2015

All times are specified in Local Standard Time (LST). Add 1 hour to adjust for Daylight Saving Time where and when it is observed.

BAKER LAKE A
NUNAVUT

64°17'56.000" N
96°04'40.000" W
18.60 m
2300503
71926
YBK

Download Data

Hourly Data (October 2015)
Hourly Data Report for October 20, 2015
Temp Definition
°C
Dew Point Temp Definition
°C
Rel Hum Definition
%
Wind Dir Definition
10's deg

Wind Spd Definition
km/h
Visibility Definition
km
Stn Press Definition
kPa
Hmdx Definition


Wind Chill Definition


Weather Definition


TIME
00:00 Legend Double Dagger -11.7 -15.3 75 33 23 24.1 102.01   -21 Cloudy
01:00 Legend Double Dagger -13.0 -16.1 78 30 24 24.1 102.06   -22 LegendNANA
02:00 Legend Double Dagger -13.8 -16.5 80 31 22 24.1 102.09   -23 LegendNANA
03:00 Legend Double Dagger -14.2 -16.8 81 31 17 24.1 102.11   -22 Clear
04:00 Legend Double Dagger -13.2 -15.8 81 36 2 24.1 102.15   -15 LegendNANA
05:00 Legend Double Dagger -11.2 -14.0 80 32 4 24.1 102.16   -14 Snow
06:00 Legend Double Dagger -10.6 -13.7 78 28 10 24.1 102.16   -16 Snow
07:00 Legend Double Dagger -10.5 -13.8 77 36 3 32.2 102.13   -12 Snow
08:00 Legend Double Dagger -10.3 -13.8 76 30 7 32.2 102.12   -14 Snow
09:00 Legend Double Dagger -10.2 -13.5 77 22 5 32.2 102.12   -13 Snow
10:00 Legend Double Dagger -10.1 -13.6 76 25 12 24.1 102.12   -16 Snow
11:00 Legend Double Dagger -10.9 -13.9 79 25 19 24.1 102.13   -19 Snow
12:00 Legend Double Dagger -10.6 -13.4 80 26 20 24.1 102.12   -19 Snow
13:00 Legend Double Dagger -10.7 -13.8 78 24 21 24.1 102.08   -19 Snow
14:00 Legend Double Dagger -11.0 -14.6 75 22 16 24.1 102.06   -18 Snow
15:00 Legend Double Dagger -11.5 -14.9 76 23 20 32.2 102.03   -20 Snow
16:00 Legend Double Dagger -12.4 -15.5 78 22 18 32.2 102.01   -20 Snow
17:00 Legend Double Dagger -13.3 -15.8 82 20 17 32.2 102.00   -21 LegendNANA
18:00 Legend Double Dagger -14.4 -16.5 84 18 17 32.2 101.97   -23 Mainly Clear
19:00 Legend Double Dagger -15.0 -17.3 83 19 17 24.1 101.96   -23 LegendNANA
20:00 Legend Double Dagger -16.3 -18.7 82 22 11 24.1 101.93   -23 LegendNANA
21:00 Legend Double Dagger -15.9 -18.2 83 20 7 24.1 101.91   -21 Mainly Clear
22:00 Legend Double Dagger -15.5 -17.8 83 20 12 24.1 101.90   -23 LegendNANA
23:00 Legend Double Dagger -14.9 -17.0 84 19 14 24.1 101.89   -22 LegendNANA

Notes on Data Quality.

Legend

  • E = Estimated
  • M = Missing
  • NA = Not Available
  • ‡ = Partner data that is not subject to review by the National Climate Archives
Date modified: